Hourly Data Report for October 15, 2013

All times are specified in Local Standard Time (LST). Add 1 hour to adjust for Daylight Saving Time where and when it is observed.

KAMLOOPS A
BRITISH COLUMBIA

50°42'09.000" N
120°26'55.000" W
345.30 m
1163781
71887
YKA

Download Data

Hourly Data (October 2013)
Hourly Data Report for October 15, 2013
Temp Definition
°C
Dew Point Temp Definition
°C
Rel Hum Definition
%
Wind Dir Definition
10's deg

Wind Spd Definition
km/h
Visibility Definition
km
Stn Press Definition
kPa
Hmdx Definition


Wind Chill Definition


Weather Definition


TIME
00:00 Legend Double Dagger 3.6 -0.2 76 4 4 64.4 98.92     LegendNANA
01:00 Legend Double Dagger 2.8 -0.5 79 25 1 64.4 98.90     Mainly Clear
02:00 Legend Double Dagger 1.8 -0.6 84 9 13 64.4 98.88     LegendNANA
03:00 Legend Double Dagger 0.9 -1.3 85 34 3 64.4 98.88     LegendNANA
04:00 Legend Double Dagger 1.3 -0.8 86 10 12 64.4 98.86     Mainly Clear
05:00 Legend Double Dagger 0.9 -0.9 88 8 9 64.4 98.83     LegendNANA
06:00 Legend Double Dagger 1.0 -0.5 90 9 11 64.4 98.79     LegendNANA
07:00 Legend Double Dagger 1.8 -0.3 86 4 9 32.2 98.82     Mostly Cloudy
08:00 Legend Double Dagger 3.0 0.4 83 3 5 64.4 98.83     LegendNANA
09:00 Legend Double Dagger 5.3 1.4 76 7 6 48.3 98.80     LegendNANA
10:00 Legend Double Dagger 6.7 2.2 73 9 13 48.3 98.70     Mostly Cloudy
11:00 Legend Double Dagger 7.3 2.0 69 8 9 48.3 98.61     LegendNANA
12:00 Legend Double Dagger 8.4 2.7 67 11 4 64.4 98.55     LegendNANA
13:00 Legend Double Dagger 9.2 2.1 61 6 9 64.4 98.42     Cloudy
14:00 Legend Double Dagger 9.9 2.5 60 25 4 64.4 98.35     LegendNANA
15:00 Legend Double Dagger 10.0 2.6 60 17 5 64.4 98.30     LegendNANA
16:00 Legend Double Dagger 10.1 1.8 56 29 3 64.4 98.27     Cloudy
17:00 Legend Double Dagger 8.7 4.0 72 26 6 48.3 98.30     Rain Showers
18:00 Legend Double Dagger 8.2 5.0 80 2 5 64.4 98.30     Rain Showers
19:00 Legend Double Dagger 8.1 5.4 83 22 1 48.3 98.30     Rain Showers
20:00 Legend Double Dagger 7.8 5.8 87 1 3 48.3 98.31     Rain Showers
21:00 Legend Double Dagger 7.5 6.0 90 1 2 48.3 98.31     Rain Showers
22:00 Legend Double Dagger 7.3 5.9 91 29 7 64.4 98.30     Cloudy
23:00 Legend Double Dagger 7.0 5.6 91 9 8 64.4 98.28     LegendNANA

Notes on Data Quality.

Legend

  • E = Estimated
  • M = Missing
  • NA = Not Available
  • ‡ = Partner data that is not subject to review by the National Climate Archives
Date modified: